Regional Weather Roundup
Issued by NWS Lake Charles, LA

Home | Current Version | Previous Version | Text Only | Print | Product List | Glossary On
Versions: 1 2 3 4 5 6 7 8 9 10 11 12 13 14 15 16 17 18 19 20 21 22 23 24 25 26 27 28 29 30 31 32 33 34 35 36 37 38 39 40 41 42 43 44 45 46 47 48 49 50
000
ASUS44 KLCH 061010
RWRLCH
RWRLCH
REGIONAL WEATHER ROUNDUP
NATIONAL WEATHER SERVICE LAKE CHARLES LA
500 AM CDT MON JUL 06 2015

Note: "fair" indicates few or no clouds below 12,000 feet with no
significant weather and/or obstructions to visibility.


ACROSS SOUTHEAST TEXAS

CITY           SKY/WX    TMP DP  RH WIND       PRES   REMARKS
BEAUMONT       PTCLDY    79  77  94 S6        30.05R
BEAUMONT CITY    N/A     77  76  95 S3        30.05S
ORANGE         MOSUNNY   81  80  95 S8        30.07R
JASPER         CLEAR     77  76  96 CALM      30.08S FOG
$$

ACROSS CENTRAL LOUISIANA

CITY           SKY/WX    TMP DP  RH WIND       PRES   REMARKS
LEESVILLE      CLOUDY    73  72  96 SE7       30.08R
FULLERTON        N/A     74  70  87 CALM      30.06R
ALEXANDRIA INT PTCLDY    72  70  93 S5        30.07R
ESLER FIELD    MOCLDY    72  69  90 SW5       30.09R
DERIDDER       CLOUDY    73  72  95 SE3       30.09S
OAKDALE        MOSUNNY   70  69  96 CALM      30.09R FOG
OPELOUSAS        N/A     69  68  98 CALM      30.09S
$$

ACROSS SOUTHWEST AND SOUTH CENTRAL LOUISIANA

CITY           SKY/WX    TMP DP  RH WIND       PRES   REMARKS
SULPHUR        MOSUNNY   78  76  91 S5        30.07R
LAKE CHARLES   CLEAR     76  74  93 CALM      30.07R
CHENNAULT INT  PTCLDY    75  74  98 SE3       30.08R FOG
CAMERON PHI    SUNNY     84  75  74 S14G20    30.09S
DEQUINCY         N/A     73  73 100 CALM      30.07S
JENNINGS       PTSUNNY   75  73  95 SE3       30.08R
LAFAYETTE      PTCLDY    73  70  90 CALM      30.10R
NEW IBERIA     NOT AVBL
ABBEVILLE        N/A     72  72  98 NE3       30.09R
PATTERSON      PTCLDY    73  72  94 S3        30.11R
SALT POINT       N/A     81  76  84 VRB3      30.08R
$$

SELECTED SITES ACROSS THE REGION

CITY           SKY/WX    TMP DP  RH WIND       PRES   REMARKS
HOUSTON BUSH   MOCLDY    80  77  90 S7        30.04R
HOUSTON HOBBY  MOCLDY    79  77  94 S5        30.03S
GALVESTON      PTCLDY    83  78  85 S15       30.06R
COLLEGE STAT   CLOUDY    78  76  93 S8        30.03R
CONROE         CLOUDY    76  74  93 SE5       30.04S
HUNTSVILLE     MOCLDY    79  75  87 S6        30.04R
LUFKIN         CLEAR     79  75  87 S6        30.04R
SHREVEPORT     PTCLDY    75  73  93 S6        30.04R
MONROE         CLEAR     68  68 100 S5        30.09R
NATCHEZ MS     NOT AVBL
BATON ROUGE    MOCLDY    70  69  97 E5        30.11R
N.O. INTL ARPT MOCLDY    76  70  82 CALM      30.11R
SLIDELL        CLOUDY    71  71 100 CALM      30.11R
$$

MARINE REPORTS

STATION/POSITION TIME  TEMP    WIND        PRES    VSBY  WAVE
                       AIR SEA DIR/SP/G                  HT/PER
                 (UTC) (F)     (DEG/KT/KT) (MB)    (MI)  (FT/S)
BUOY 30 S HIGH I 0950   84 84  170/ 16/ 17 1016.9R         3/ 6
SEA RIM ST PARK  0900   83     180/ 11/ 14 1018.0R
PORT ARTHUR      0900      84  190/  6/  8 1017.6R
SABINE PASS N    0900   83 85  190/  9/ 14 1017.6R
TEXAS POINT      NOT AVBL
CALCASIEU PASS   0900   84 85  210/ 18/ 21   N/A
LK CHARLES BEACH 0900   77 86                N/A
MARSH ISLAND     NOT AVBL
FRESH WATER LOCK 0900   83 85  170/ 13/ 16 1018.1R
AMERADA PASS     0900   80 83  150/  5/  8 1018.4R
$$


USA.gov is the U.S. government's official web portal to all federal, state and local government web resources and services.